This is the latest recevied weather packets stored in our database for station/object N5CSU. If no packets are shown the sender has not sent any weather packets the latest 10 day(s).
| Time | Temp. | Humidity | Pressure | Rain* | Wind** | Luminosity | Snow |
|---|---|---|---|---|---|---|---|
| 1777820392 | 21.67° C | 56% | 1021.5 hPa | 0 mm | - | 12 W/m² | - |
| 1777819183 | 20.56° C | 63% | 1021.8 hPa | 0 mm | - | 11 W/m² | - |
| 1777817963 | 18.89° C | 69% | 1021.7 hPa | 0 mm | - | 10 W/m² | - |
| 1777815540 | 14.44° C | 91% | 1021.6 hPa | 0 mm | - | 8 W/m² | - |
| 1777814630 | 13.33° C | 95% | 1021.4 hPa | 0 mm | - | 6 W/m² | - |
| 1777811299 | 10.56° C | 94% | 1021.2 hPa | 0 mm | - | 3 W/m² | - |
| 1777810694 | 10° C | 94% | 1021.2 hPa | 0 mm | - | 2 W/m² | - |
| 1777809179 | 10° C | 94% | 1020.8 hPa | 0 mm | - | 1 W/m² | - |
| 1777807059 | 10° C | 93% | 1020.7 hPa | 0 mm | - | 0 W/m² | - |
| 1777805846 | 10° C | 93% | 1020.5 hPa | 0 mm | - | 0 W/m² | - |
| 1777805240 | 10° C | 93% | 1020.5 hPa | 0 mm | - | 0 W/m² | - |
| 1777804939 | 10° C | 93% | 1020.6 hPa | 0 mm | - | 0 W/m² | - |
| 1777804636 | 10° C | 93% | 1020.6 hPa | 0 mm | - | 0 W/m² | - |
| 1777804334 | 10.56° C | 93% | 1020.3 hPa | 0 mm | - | 0 W/m² | - |
| 1777804030 | 10.56° C | 93% | 1020.6 hPa | 0 mm | - | 0 W/m² | - |
| 1777803727 | 10.56° C | 93% | 1020.3 hPa | 0 mm | - | 0 W/m² | - |
| 1777803120 | 10.56° C | 93% | 1020.5 hPa | 0 mm | - | 0 W/m² | - |
| 1777802817 | 10.56° C | 93% | 1020.5 hPa | 0 mm | - | 0 W/m² | - |
| 1777802515 | 10.56° C | 93% | 1020.6 hPa | 0 mm | - | 0 W/m² | - |
| 1777802213 | 10.56° C | 92% | 1020.3 hPa | 0 mm | - | 0 W/m² | - |
| 1777801911 | 10.56° C | 92% | 1020.4 hPa | 0 mm | - | 0 W/m² | - |
| 1777801608 | 10.56° C | 92% | 1020.5 hPa | 0 mm | - | 0 W/m² | - |
| 1777801001 | 10.56° C | 92% | 1020.3 hPa | 0 mm | - | 0 W/m² | - |
| 1777800698 | 10.56° C | 92% | 1020.6 hPa | 0 mm | - | 0 W/m² | - |
| 1777800393 | 10.56° C | 92% | 1020.4 hPa | 0 mm | - | 0 W/m² | - |
* Rain latest hour (hover to see other rain measurements)
** Current wind speed in m/s (hover to see current wind gust speed)